Weather History for Milwaukee, WI

Change the Weather History Date:

Wednesday, March 5, 2014

  Actual Average Record
Temperature  
Mean Temperature 18 °F 31 °F  
Max Temperature 19 °F 38 °F 62 °F (1894)
Min Temperature 16 °F 25 °F -7 °F (1890)
Degree Days  
Heating Degree Days 47 34  
Month to date heating degree days 259 172  
Since 1 July heating degree days 5915 5152  
Cooling Degree Days 0 0  
Month to date cooling degree days 0 0  
Year to date cooling degree days 0 0  
Moisture  
Dew Point 10 °F    
Average Humidity 71    
Maximum Humidity 80    
Minimum Humidity 61    
Precipitation  
Precipitation 0.02 in 0.07 in 1.26 in (1964)
Month to date precipitation 0.35 0.32  
Year to date precipitation 3.09 3.73  
Snow  
Snow 0.60 in 0.30 in 8.60 in (1964)
Month to date snowfall 5.6 1.6  
Since 1 July snowfall 62.4 39.4  
Snow Depth 13.00 in    
Sea Level Pressure  
Sea Level Pressure 30.46 in    
Wind  
Wind Speed 14 mph (NE)    
Max Wind Speed 21 mph    
Max Gust Speed 27 mph    
Visibility 8 miles    
Events Snow    
T = Trace of Precipitation, MM = Missing Value Source: NWS Daily Summary

Daily Weather History Graph

Daily Weather History Graph

Search for Another Location

Airport:

Trip Planner

Search our weather history database for the weather conditions in past years. The results will help you decide how hot, cold, wet, or windy it might be!

Date:

Astronomy

Mar. 05, 2014 Rise Set
Actual Time 6:20 AM CST 5:45 PM CST
Civil Twilight 5:52 AM CST 6:14 PM CST
Nautical Twilight 5:19 AM CST 6:47 PM CST
Astronomical Twilight 4:46 AM CST 7:20 PM CST
Moon 8:38 AM CST (3/5) 11:02 PM CST (3/5)
Length of Visible Light 12h 21m
Length of Day
11h 25m
Waxing Crescent, 23% of the Moon is Illuminated
Mar 5
Waxing Crescent
Mar 8
First Quarter
Mar 16
Full
Mar 23
Last Quarter
Mar 30
New

Hourly Weather History & Observations

Time (CST) Temp. Windchill Dew Point Humidity Pressure Visibility Wind Dir Wind Speed Gust Speed Precip Events Conditions
12:52 AM 18.0 °F 5.4 °F 10.9 °F 74% 30.33 in 4.0 mi ENE 11.5 mph - 0.00 in Snow Light Snow
1:52 AM 18.0 °F 6.1 °F 9.0 °F 68% 30.36 in 10.0 mi NNE 10.4 mph - 0.00 in   Overcast
2:34 AM 18.0 °F 7.7 °F 10.9 °F 74% 30.33 in 2.0 mi NNE 8.1 mph - 0.00 in Snow Light Snow
2:52 AM 17.1 °F 5.8 °F 12.0 °F 81% 30.37 in 2.0 mi NE 9.2 mph - 0.01 in Snow Light Snow
3:52 AM 17.1 °F 4.3 °F 12.0 °F 81% 30.38 in 2.0 mi NE 11.5 mph - 0.00 in Snow Light Snow
4:31 AM 17.1 °F 2.0 °F 12.0 °F 81% 30.34 in 3.0 mi NE 16.1 mph - 0.01 in Snow Light Snow
4:52 AM 17.1 °F 3.0 °F 12.0 °F 81% 30.39 in 3.0 mi NE 13.8 mph 23.0 mph 0.01 in Snow Light Snow
5:29 AM 17.1 °F 2.0 °F 10.9 °F 77% 30.37 in 6.0 mi NE 16.1 mph 24.2 mph 0.00 in Snow Light Snow
5:52 AM 17.1 °F 2.5 °F 10.0 °F 74% 30.43 in 8.0 mi ENE 15.0 mph - 0.00 in Snow Light Snow
6:14 AM 17.1 °F 2.0 °F 9.0 °F 71% 30.40 in 10.0 mi ENE 16.1 mph - 0.00 in   Overcast
6:41 AM 18.0 °F 2.2 °F 10.0 °F 71% 30.40 in 8.0 mi ENE 18.4 mph - 0.00 in   Overcast
6:52 AM 17.1 °F 1.5 °F 10.0 °F 74% 30.45 in 10.0 mi ENE 17.3 mph - 0.00 in   Overcast
7:52 AM 17.1 °F 2.5 °F 10.0 °F 74% 30.47 in 10.0 mi NE 15.0 mph - N/A   Overcast
8:52 AM 17.1 °F 3.6 °F 10.0 °F 74% 30.48 in 9.0 mi NE 12.7 mph - N/A   Overcast
9:04 AM 17.1 °F 2.0 °F 9.0 °F 71% 30.44 in 8.0 mi NE 16.1 mph - N/A   Mostly Cloudy
9:17 AM 17.1 °F 2.5 °F 10.0 °F 74% 30.45 in 10.0 mi NE 15.0 mph - N/A   Mostly Cloudy
9:35 AM 17.1 °F 3.0 °F 8.1 °F 68% 30.45 in 10.0 mi NE 13.8 mph - N/A   Mostly Cloudy
9:52 AM 17.1 °F 2.0 °F 8.1 °F 68% 30.50 in 10.0 mi NE 16.1 mph - N/A   Mostly Cloudy
10:52 AM 18.0 °F 2.2 °F 7.0 °F 62% 30.51 in 10.0 mi NE 18.4 mph - N/A   Mostly Cloudy
11:52 AM 19.0 °F 3.6 °F 8.1 °F 62% 30.51 in 10.0 mi NE 18.4 mph 24.2 mph N/A   Mostly Cloudy
12:52 PM 19.0 °F 4.0 °F 8.1 °F 62% 30.50 in 10.0 mi NNE 17.3 mph 25.3 mph N/A   Mostly Cloudy
1:52 PM 19.0 °F 4.0 °F 10.0 °F 68% 30.50 in 10.0 mi NE 17.3 mph - N/A   Mostly Cloudy
2:34 PM 18.0 °F 2.2 °F 9.0 °F 68% 30.46 in 10.0 mi NNE 18.4 mph 24.2 mph N/A   Mostly Cloudy
2:52 PM 18.0 °F 3.6 °F 10.0 °F 71% 30.51 in 10.0 mi NE 15.0 mph - N/A   Mostly Cloudy
3:52 PM 18.0 °F 4.8 °F 10.0 °F 71% 30.51 in 10.0 mi NE 12.7 mph 23.0 mph N/A   Mostly Cloudy
4:52 PM 17.1 °F 3.0 °F 10.0 °F 74% 30.51 in 10.0 mi NE 13.8 mph 21.9 mph N/A   Mostly Cloudy
5:25 PM 17.1 °F 3.6 °F 10.0 °F 74% 30.46 in 10.0 mi NNE 12.7 mph - N/A   Mostly Cloudy
5:52 PM 17.1 °F 3.6 °F 9.0 °F 71% 30.52 in 10.0 mi NNE 12.7 mph - N/A   Mostly Cloudy
6:52 PM 16.0 °F 2.3 °F 10.0 °F 77% 30.52 in 10.0 mi NNE 12.7 mph - N/A   Scattered Clouds
7:52 PM 17.1 °F 3.6 °F 10.0 °F 74% 30.52 in 10.0 mi NE 12.7 mph - N/A   Scattered Clouds
8:52 PM 18.0 °F 7.7 °F 12.0 °F 78% 30.50 in 10.0 mi NE 8.1 mph - N/A   Scattered Clouds
9:52 PM 19.0 °F 5.6 °F 9.0 °F 65% 30.51 in 10.0 mi East 13.8 mph - N/A   Mostly Cloudy
10:52 PM 18.0 °F 4.2 °F 9.0 °F 68% 30.49 in 10.0 mi ESE 13.8 mph - N/A   Mostly Cloudy
11:52 PM 18.0 °F 3.1 °F 10.9 °F 74% 30.49 in 10.0 mi ESE 16.1 mph - N/A   Scattered Clouds